| time (UTC) | temp C | wind direction | speed KPH | gust KPH | rain 1hr cm | rain 24hr cm | rain mn cm | humidity % | barometer mb |
| 20260506202051 | 12 | 242 | 4.8 | 19.3 | 0.03 | 0.13 | 0.13 | 91 | 1012.0 |
| 20260506201550 | 12 | 244 | 6.4 | 29.0 | 0.03 | 0.13 | 0.13 | 91 | 1012.0 |
| 20260506201049 | 12 | 212 | 6.4 | 29.0 | 0.03 | 0.10 | 0.10 | 91 | 1012.1 |
| 20260506200550 | 12 | 140 | 6.4 | 19.3 | 0.03 | 0.10 | 0.10 | 91 | 1012.1 |
| 20260506200051 | 12 | 322 | 3.2 | 20.9 | 0.05 | 0.10 | 0.10 | 91 | 1012.0 |
| 20260506195548 | 12 | 225 | 6.4 | 20.9 | 0.08 | 0.10 | 0.10 | 91 | 1012.2 |
| 20260506195047 | 12 | 242 | 3.2 | 16.1 | 0.10 | 0.10 | 0.10 | 91 | 1012.2 |
| 20260506194549 | 12 | 232 | 6.4 | 17.7 | 0.10 | 0.10 | 0.10 | 91 | 1012.4 |
| 20260506194045 | 12 | 217 | 4.8 | 17.7 | 0.10 | 0.10 | 0.10 | 91 | 1012.4 |
| 20260506193546 | 12 | 239 | 4.8 | 22.5 | 0.10 | 0.10 | 0.10 | 90 | 1012.5 |
| 20260506193046 | 12 | 38 | 6.4 | 27.4 | 0.10 | 0.10 | 0.10 | 90 | 1012.4 |
| 20260506192545 | 12 | 197 | 6.4 | 27.4 | 0.10 | 0.10 | 0.10 | 90 | 1012.5 |
| 20260506192045 | 12 | 218 | 9.7 | 19.3 | 0.10 | 0.10 | 0.10 | 90 | 1012.5 |
| 20260506191544 | 13 | 339 | 4.8 | 19.3 | 0.10 | 0.10 | 0.10 | 90 | 1012.5 |
| 20260506191044 | 13 | 188 | 4.8 | 24.1 | 0.08 | 0.08 | 0.08 | 90 | 1012.5 |
| 20260506190544 | 13 | 190 | 11.3 | 25.7 | 0.08 | 0.08 | 0.08 | 90 | 1012.6 |
| 20260506190042 | 13 | 218 | 9.7 | 17.7 | 0.05 | 0.05 | 0.05 | 89 | 1012.7 |
| 20260506185543 | 13 | 286 | 4.8 | 16.1 | 0.03 | 0.03 | 0.03 | 89 | 1012.8 |
| 20260506185042 | 13 | 184 | 4.8 | 32.2 | 0.00 | 0.00 | 0.00 | 88 | 1012.8 |
| 20260506184540 | 13 | 214 | 6.4 | 32.2 | 0.00 | 0.00 | 0.00 | 87 | 1012.8 |
| 20260506184039 | 13 | 168 | 9.7 | 19.3 | 0.00 | 0.00 | 0.00 | 86 | 1013.0 |
| 20260506183539 | 13 | 206 | 8.0 | 19.3 | 0.00 | 0.00 | 0.00 | 85 | 1013.1 |
| 20260506183039 | 14 | 182 | 4.8 | 25.7 | 0.00 | 0.00 | 0.00 | 84 | 1013.1 |
| 20260506182539 | 14 | 288 | 6.4 | 25.7 | 0.00 | 0.00 | 0.00 | 83 | 1013.1 |
| 20260506182038 | 14 | 111 | 6.4 | 25.7 | 0.00 | 0.00 | 0.00 | 83 | 1013.2 |
| 20260506181537 | 14 | 177 | 9.7 | 22.5 | 0.00 | 0.00 | 0.00 | 83 | 1013.4 |
| 20260506181041 | 14 | 269 | 8.0 | 25.7 | 0.00 | 0.00 | 0.00 | 83 | 1013.3 |
| 20260506180538 | 14 | 292 | 9.7 | 32.2 | 0.00 | 0.00 | 0.00 | 83 | 1013.3 |
| 20260506180042 | 14 | 225 | 9.7 | 30.6 | 0.00 | 0.00 | 0.00 | 82 | 1013.3 |
| 20260506175535 | 14 | 121 | 9.7 | 27.4 | 0.00 | 0.00 | 0.00 | 82 | 1013.4 |
| 20260506175035 | 14 | 208 | 9.7 | 24.1 | 0.00 | 0.00 | 0.00 | 82 | 1013.8 |
| 20260506174533 | 14 | 342 | 8.0 | 22.5 | 0.00 | 0.00 | 0.00 | 82 | 1014.0 |
| 20260506174034 | 14 | 272 | 9.7 | 19.3 | 0.00 | 0.00 | 0.00 | 81 | 1013.6 |
| 20260506173533 | 15 | 261 | 6.4 | 24.1 | 0.00 | 0.00 | 0.00 | 82 | 1013.8 |
| 20260506173041 | 14 | 200 | 9.7 | 25.7 | 0.00 | 0.00 | 0.00 | 82 | 1013.8 |
| 20260506172532 | 14 | 235 | 8.0 | 25.7 | 0.00 | 0.00 | 0.00 | 82 | 1014.0 |
| 20260506172032 | 14 | 229 | 4.8 | 27.4 | 0.00 | 0.00 | 0.00 | 82 | 1014.1 |
| 20260506171534 | 14 | 200 | 8.0 | 27.4 | 0.00 | 0.00 | 0.00 | 82 | 1014.2 |
| 20260506171034 | 14 | 160 | 11.3 | 29.0 | 0.00 | 0.00 | 0.00 | 81 | 1014.1 |
| 20260506170531 | 14 | 216 | 9.7 | 30.6 | 0.00 | 0.00 | 0.00 | 81 | 1014.1 |
| 20260506170033 | 15 | 227 | 9.7 | 30.6 | 0.00 | 0.00 | 0.00 | 81 | 1014.1 |
| 20260506165532 | 15 | 252 | 11.3 | 24.1 | 0.00 | 0.00 | 0.00 | 80 | 1014.0 |
| 20260506165030 | 15 | 219 | 9.7 | 25.7 | 0.00 | 0.00 | 0.00 | 79 | 1014.2 |
| 20260506164530 | 15 | 26 | 9.7 | 24.1 | 0.00 | 0.00 | 0.00 | 78 | 1014.3 |
| 20260506164030 | 15 | 290 | 9.7 | 24.1 | 0.00 | 0.00 | 0.00 | 78 | 1014.2 |
| 20260506163530 | 15 | 194 | 3.2 | 20.9 | 0.00 | 0.00 | 0.00 | 79 | 1014.2 |
| 20260506163029 | 16 | 241 | 4.8 | 17.7 | 0.00 | 0.00 | 0.00 | 79 | 1014.4 |
| 20260506162528 | 15 | 162 | 3.2 | 19.3 | 0.00 | 0.00 | 0.00 | 81 | 1014.6 |
| 20260506162027 | 15 | 208 | 9.7 | 19.3 | 0.00 | 0.00 | 0.00 | 80 | 1014.7 |
| 20260506161528 | 15 | 198 | 8.0 | 20.9 | 0.00 | 0.00 | 0.00 | 78 | 1014.7 |
| 20260506161030 | 16 | 163 | 9.7 | 20.9 | 0.00 | 0.00 | 0.00 | 79 | 1014.8 |
| 20260506160527 | 16 | 223 | 9.7 | 30.6 | 0.00 | 0.00 | 0.00 | 78 | 1014.8 |
| 20260506160029 | 15 | 246 | 8.0 | 27.4 | 0.00 | 0.00 | 0.00 | 79 | 1014.9 |
| 20260506155527 | 15 | 184 | 9.7 | 27.4 | 0.00 | 0.00 | 0.00 | 78 | 1014.9 |
| 20260506155026 | 15 | 246 | 6.4 | 22.5 | 0.00 | 0.00 | 0.00 | 79 | 1014.9 |
| 20260506154527 | 15 | 200 | 3.2 | 22.5 | 0.00 | 0.00 | 0.00 | 79 | 1014.9 |
| 20260506154026 | 15 | 187 | 9.7 | 40.2 | 0.00 | 0.00 | 0.00 | 78 | 1015.0 |
| 20260506153525 | 16 | 143 | 14.5 | 40.2 | 0.00 | 0.00 | 0.00 | 77 | 1015.0 |
| 20260506153127 | 16 | 196 | 11.3 | 24.1 | 0.00 | 0.00 | 0.00 | 77 | 1014.9 |
| 20260506152525 | 16 | 215 | 11.3 | 30.6 | 0.00 | 0.00 | 0.00 | 78 | 1015.0 |
| 20260506152026 | 16 | 192 | 9.7 | 30.6 | 0.00 | 0.00 | 0.00 | 77 | 1015.0 |
| 20260506151525 | 16 | 232 | 9.7 | 22.5 | 0.00 | 0.00 | 0.00 | 76 | 1014.9 |
| 20260506151025 | 16 | 185 | 6.4 | 24.1 | 0.00 | 0.00 | 0.00 | 77 | 1015.0 |
| 20260506150527 | 16 | 298 | 9.7 | 24.1 | 0.00 | 0.00 | 0.00 | 76 | 1014.9 |
| 20260506150025 | 16 | 244 | 6.4 | 22.5 | 0.00 | 0.00 | 0.00 | 77 | 1015.0 |
| 20260506145525 | 16 | 241 | 6.4 | 19.3 | 0.00 | 0.00 | 0.00 | 76 | 1015.1 |
| 20260506145024 | 16 | 209 | 9.7 | 22.5 | 0.00 | 0.00 | 0.00 | 76 | 1015.0 |
| 20260506144527 | 16 | 176 | 11.3 | 22.5 | 0.00 | 0.00 | 0.00 | 77 | 1015.2 |
| 20260506144023 | 16 | 218 | 8.0 | 19.3 | 0.00 | 0.00 | 0.00 | 79 | 1015.3 |
| 20260506143522 | 16 | 212 | 9.7 | 19.3 | 0.00 | 0.00 | 0.00 | 78 | 1015.3 |
| 20260506143031 | 16 | 242 | 6.4 | 25.7 | 0.00 | 0.00 | 0.00 | 80 | 1015.2 |
| 20260506142524 | 15 | 226 | 9.7 | 25.7 | 0.00 | 0.00 | 0.00 | 79 | 1015.1 |
| 20260506142023 | 15 | 206 | 9.7 | 24.1 | 0.00 | 0.00 | 0.00 | 79 | 1015.0 |
| 20260506141520 | 15 | 220 | 11.3 | 24.1 | 0.00 | 0.00 | 0.00 | 79 | 1015.0 |
| 20260506141021 | 15 | 188 | 8.0 | 24.1 | 0.00 | 0.00 | 0.00 | 80 | 1014.9 |
| 20260506140521 | 15 | 298 | 8.0 | 20.9 | 0.00 | 0.00 | 0.00 | 79 | 1014.9 |
| 20260506140021 | 15 | 257 | 3.2 | 24.1 | 0.00 | 0.00 | 0.00 | 80 | 1015.0 |
| 20260506135520 | 16 | 239 | 8.0 | 25.7 | 0.00 | 0.00 | 0.00 | 78 | 1014.8 |
| 20260506135020 | 16 | 273 | 11.3 | 29.0 | 0.00 | 0.00 | 0.00 | 78 | 1014.8 |
| 20260506134520 | 16 | 180 | 12.9 | 29.0 | 0.00 | 0.00 | 0.00 | 78 | 1014.9 |
| 20260506134020 | 16 | 322 | 6.4 | 19.3 | 0.00 | 0.00 | 0.00 | 78 | 1014.7 |
| 20260506133519 | 15 | 138 | 6.4 | 19.3 | 0.00 | 0.00 | 0.00 | 81 | 1014.8 |
| 20260506133017 | 15 | 316 | 6.4 | 19.3 | 0.00 | 0.00 | 0.00 | 80 | 1014.8 |
| 20260506132518 | 15 | 231 | 6.4 | 19.3 | 0.00 | 0.00 | 0.00 | 80 | 1015.2 |
| 20260506132017 | 15 | 211 | 8.0 | 16.1 | 0.00 | 0.00 | 0.00 | 80 | 1015.2 |
| 20260506131518 | 15 | 220 | 8.0 | 19.3 | 0.00 | 0.00 | 0.00 | 80 | 1015.3 |
| 20260506131018 | 15 | 209 | 8.0 | 19.3 | 0.00 | 0.00 | 0.00 | 80 | 1015.4 |
| 20260506130521 | 15 | 235 | 6.4 | 20.9 | 0.00 | 0.00 | 0.00 | 79 | 1015.3 |
| 20260506130020 | 15 | 287 | 6.4 | 22.5 | 0.00 | 0.00 | 0.00 | 81 | 1015.4 |
| 20260506125516 | 15 | 222 | 4.8 | 22.5 | 0.00 | 0.00 | 0.00 | 80 | 1015.3 |
| 20260506125018 | 15 | 167 | 3.2 | 24.1 | 0.00 | 0.00 | 0.00 | 81 | 1015.4 |
| 20260506124515 | 15 | 173 | 8.0 | 17.7 | 0.00 | 0.00 | 0.00 | 80 | 1015.4 |
| 20260506124015 | 15 | 163 | 4.8 | 19.3 | 0.00 | 0.00 | 0.00 | 80 | 1015.3 |
| 20260506123514 | 15 | 186 | 8.0 | 19.3 | 0.00 | 0.00 | 0.00 | 81 | 1015.3 |
| 20260506123016 | 15 | 221 | 8.0 | 19.3 | 0.00 | 0.00 | 0.00 | 81 | 1015.2 |
| 20260506122512 | 15 | 217 | 8.0 | 17.7 | 0.00 | 0.00 | 0.00 | 82 | 1015.2 |
| 20260506122011 | 15 | 154 | 9.7 | 19.3 | 0.00 | 0.00 | 0.00 | 82 | 1015.2 |
| 20260506121514 | 15 | 205 | 8.0 | 17.7 | 0.00 | 0.00 | 0.00 | 83 | 1015.2 |
| 20260506121010 | 14 | 200 | 8.0 | 20.9 | 0.00 | 0.00 | 0.00 | 83 | 1015.2 |
| 20260506120509 | 14 | 221 | 8.0 | 22.5 | 0.00 | 0.00 | 0.00 | 83 | 1015.2 |
| 20260506120009 | 14 | 137 | 6.4 | 19.3 | 0.00 | 0.00 | 0.00 | 84 | 1015.3 |
| 20260506115509 | 14 | 138 | 6.4 | 19.3 | 0.00 | 0.00 | 0.00 | 84 | 1015.2 |
| 20260506115009 | 14 | 213 | 8.0 | 17.7 | 0.00 | 0.00 | 0.00 | 83 | 1015.3 |
| 20260506114510 | 14 | 194 | 6.4 | 14.5 | 0.00 | 0.00 | 0.00 | 84 | 1015.3 |
| 20260506114007 | 14 | 310 | 4.8 | 14.5 | 0.00 | 0.00 | 0.00 | 85 | 1015.2 |
| 20260506113506 | 14 | 344 | 3.2 | 12.9 | 0.00 | 0.00 | 0.00 | 85 | 1015.4 |
| 20260506113008 | 13 | 166 | 4.8 | 22.5 | 0.00 | 0.00 | 0.00 | 86 | 1015.2 |
| 20260506112506 | 13 | 139 | 4.8 | 20.9 | 0.00 | 0.00 | 0.00 | 86 | 1015.4 |
| 20260506112006 | 13 | 265 | 3.2 | 16.1 | 0.00 | 0.00 | 0.00 | 87 | 1015.4 |
| 20260506111504 | 13 | 223 | 1.6 | 8.0 | 0.00 | 0.00 | 0.00 | 89 | 1015.4 |
| 20260506111003 | 13 | 296 | 3.2 | 12.9 | 0.00 | 0.00 | 0.00 | 89 | 1015.4 |
| 20260506110503 | 13 | 348 | 1.6 | 12.9 | 0.00 | 0.00 | 0.00 | 89 | 1015.4 |
| 20260506110003 | 12 | 242 | 1.6 | 14.5 | 0.00 | 0.00 | 0.00 | 89 | 1015.3 |
| 20260506105503 | 12 | 234 | 4.8 | 22.5 | 0.00 | 0.00 | 0.00 | 89 | 1015.1 |
| 20260506105002 | 12 | 167 | 6.4 | 22.5 | 0.00 | 0.00 | 0.00 | 89 | 1015.2 |
| 20260506104501 | 12 | 159 | 4.8 | 22.5 | 0.00 | 0.00 | 0.00 | 89 | 1015.3 |
| 20260506104003 | 12 | 183 | 6.4 | 22.5 | 0.00 | 0.00 | 0.00 | 89 | 1015.3 |
| 20260506103502 | 12 | 108 | 8.0 | 22.5 | 0.00 | 0.00 | 0.00 | 89 | 1015.2 |
| 20260506103101 | 12 | 177 | 8.0 | 16.1 | 0.00 | 0.00 | 0.00 | 89 | 1015.2 |
| 20260506102501 | 12 | 170 | 6.4 | 22.5 | 0.00 | 0.00 | 0.00 | 89 | 1015.1 |
| 20260506102101 | 12 | 228 | 9.7 | 22.5 | 0.00 | 0.00 | 0.00 | 90 | 1015.1 |
| 20260506101559 | 12 | 249 | 6.4 | 22.5 | 0.00 | 0.00 | 0.00 | 90 | 1015.1 |
| 20260506101059 | 12 | 163 | 8.0 | 19.3 | 0.00 | 0.00 | 0.00 | 90 | 1015.0 |
| 20260506100558 | 12 | 227 | 6.4 | 19.3 | 0.00 | 0.00 | 0.00 | 90 | 1015.0 |
| 20260506100058 | 12 | 196 | 6.4 | 27.4 | 0.00 | 0.00 | 0.00 | 90 | 1015.0 |
| 20260506095558 | 12 | 192 | 4.8 | 27.4 | 0.00 | 0.00 | 0.00 | 90 | 1015.0 |
| 20260506095056 | 12 | 232 | 6.4 | 20.9 | 0.00 | 0.00 | 0.00 | 90 | 1015.1 |
| 20260506094555 | 12 | 196 | 8.0 | 17.7 | 0.00 | 0.00 | 0.00 | 89 | 1015.1 |
| 20260506094054 | 12 | 217 | 6.4 | 20.9 | 0.00 | 0.00 | 0.00 | 89 | 1015.0 |
| 20260506093554 | 12 | 253 | 8.0 | 22.5 | 0.00 | 0.00 | 0.00 | 89 | 1014.9 |
| 20260506093055 | 13 | 142 | 8.0 | 27.4 | 0.00 | 0.00 | 0.00 | 89 | 1015.0 |
| 20260506092553 | 13 | 228 | 8.0 | 27.4 | 0.00 | 0.00 | 0.00 | 89 | 1015.0 |
| 20260506092053 | 13 | 219 | 8.0 | 22.5 | 0.00 | 0.00 | 0.00 | 89 | 1015.0 |
| 20260506091552 | 13 | 207 | 6.4 | 22.5 | 0.00 | 0.00 | 0.00 | 89 | 1015.1 |
| 20260506091050 | 13 | 159 | 12.9 | 25.7 | 0.00 | 0.00 | 0.00 | 89 | 1015.1 |
| 20260506090550 | 13 | 217 | 6.4 | 16.1 | 0.00 | 0.00 | 0.00 | 89 | 1015.1 |
| 20260506090050 | 13 | 176 | 4.8 | 14.5 | 0.00 | 0.00 | 0.00 | 89 | 1015.2 |
| 20260506085550 | 13 | 245 | 4.8 | 25.7 | 0.00 | 0.00 | 0.00 | 89 | 1015.3 |
| 20260506085049 | 13 | 282 | 9.7 | 25.7 | 0.00 | 0.00 | 0.00 | 88 | 1015.2 |
| 20260506084549 | 13 | 221 | 8.0 | 22.5 | 0.00 | 0.00 | 0.00 | 89 | 1015.2 |
| 20260506084048 | 13 | 196 | 6.4 | 29.0 | 0.00 | 0.00 | 0.00 | 89 | 1015.2 |
| 20260506083548 | 13 | 258 | 6.4 | 29.0 | 0.00 | 0.00 | 0.00 | 89 | 1015.2 |
| 20260506083048 | 13 | 178 | 4.8 | 19.3 | 0.00 | 0.00 | 0.00 | 88 | 1015.2 |
| 20260506082546 | 13 | 267 | 8.0 | 20.9 | 0.00 | 0.00 | 0.00 | 88 | 1015.3 |
| 20260506082046 | 13 | 197 | 3.2 | 16.1 | 0.00 | 0.00 | 0.00 | 88 | 1015.4 |
| 20260506081550 | 13 | 240 | 6.4 | 16.1 | 0.00 | 0.00 | 0.00 | 89 | 1015.4 |
| 20260506081045 | 13 | 269 | 4.8 | 16.1 | 0.00 | 0.00 | 0.00 | 89 | 1015.5 |
| 20260506080547 | 13 | 179 | 4.8 | 16.1 | 0.00 | 0.00 | 0.00 | 89 | 1015.5 |
| 20260506073041 | 13 | 161 | 4.8 | 19.3 | 0.00 | 0.00 | 0.00 | 88 | 1015.5 |
| 20260506072541 | 13 | 180 | 4.8 | 19.3 | 0.00 | 0.00 | 0.00 | 87 | 1015.5 |
| 20260506072042 | 13 | 211 | 4.8 | 19.3 | 0.00 | 0.00 | 0.00 | 88 | 1015.6 |
| 20260506071549 | 13 | 257 | 6.4 | 19.3 | 0.00 | 0.00 | 0.00 | 88 | 1015.5 |
| 20260506071041 | 13 | 168 | 4.8 | 12.9 | 0.00 | 0.00 | 0.00 | 88 | 1015.5 |
| 20260506070540 | 13 | 211 | 4.8 | 14.5 | 0.00 | 0.00 | 0.00 | 88 | 1015.4 |
| 20260506062039 | 13 | 187 | 4.8 | 9.7 | 0.00 | 0.00 | 0.00 | 87 | 1015.5 |
| 20260506061538 | 13 | 261 | 1.6 | 11.3 | 0.00 | 0.00 | 0.00 | 87 | 1015.4 |
| 20260506061037 | 13 | 221 | 6.4 | 14.5 | 0.00 | 0.00 | 0.00 | 87 | 1015.5 |
| 20260506060537 | 13 | 175 | 3.2 | 16.1 | 0.00 | 0.00 | 0.00 | 87 | 1015.6 |
| 20260506051027 | 13 | 211 | 3.2 | 11.3 | 0.00 | 0.00 | 0.00 | 87 | 1016.1 |
| 20260506050527 | 13 | 163 | 3.2 | 14.5 | 0.00 | 0.00 | 0.00 | 87 | 1016.1 |
| 20260506045026 | 13 | 259 | 3.2 | 16.1 | 0.00 | 0.00 | 0.00 | 87 | 1016.3 |
| 20260506044530 | 13 | 197 | 4.8 | 16.1 | 0.00 | 0.00 | 0.00 | 87 | 1016.3 |
| 20260506044023 | 13 | 228 | 4.8 | 16.1 | 0.00 | 0.00 | 0.00 | 86 | 1016.3 |
| 20260506043525 | 12 | 218 | 3.2 | 11.3 | 0.00 | 0.00 | 0.00 | 86 | 1016.3 |
| 20260506043023 | 12 | 210 | 4.8 | 11.3 | 0.00 | 0.00 | 0.00 | 86 | 1016.3 |
| 20260506042521 | 13 | 152 | 3.2 | 14.5 | 0.00 | 0.00 | 0.00 | 86 | 1016.3 |
| 20260506042021 | 12 | 201 | 4.8 | 14.5 | 0.00 | 0.00 | 0.00 | 85 | 1016.3 |
| 20260506041521 | 12 | 165 | 6.4 | 14.5 | 0.00 | 0.00 | 0.00 | 85 | 1016.1 |
| 20260506041019 | 13 | 171 | 1.6 | 11.3 | 0.00 | 0.00 | 0.00 | 85 | 1016.3 |
| 20260506040518 | 13 | 205 | 1.6 | 11.3 | 0.00 | 0.00 | 0.00 | 84 | 1016.3 |
| 20260506040018 | 13 | 261 | 1.6 | 9.7 | 0.00 | 0.00 | 0.00 | 84 | 1016.3 |
| 20260506035517 | 13 | 193 | 3.2 | 9.7 | 0.00 | 0.00 | 0.00 | 84 | 1016.3 |
| 20260506035019 | 13 | 189 | 1.6 | 9.7 | 0.00 | 0.00 | 0.00 | 83 | 1016.1 |
| 20260506034517 | 13 | 178 | 3.2 | 9.7 | 0.00 | 0.00 | 0.00 | 82 | 1016.2 |
| 20260506034018 | 13 | 195 | 3.2 | 9.7 | 0.00 | 0.00 | 0.00 | 82 | 1016.2 |
| 20260506033516 | 13 | 177 | 1.6 | 11.3 | 0.00 | 0.00 | 0.00 | 82 | 1016.1 |
| 20260506033015 | 13 | 176 | 1.6 | 11.3 | 0.00 | 0.00 | 0.00 | 81 | 1016.2 |
| 20260506032516 | 13 | 159 | 1.6 | 12.9 | 0.00 | 0.00 | 0.00 | 81 | 1016.2 |
| 20260506032015 | 13 | 169 | 0.0 | 12.9 | 0.00 | 0.00 | 0.00 | 80 | 1016.2 |
| 20260506031517 | 13 | 99 | 0.0 | 11.3 | 0.00 | 0.00 | 0.00 | 80 | 1016.0 |
| 20260506031013 | 13 | 233 | 3.2 | 16.1 | 0.00 | 0.00 | 0.00 | 80 | 1016.0 |
| 20260506030514 | 13 | 165 | 4.8 | 16.1 | 0.00 | 0.00 | 0.00 | 80 | 1016.0 |
| 20260506030013 | 14 | 206 | 3.2 | 16.1 | 0.00 | 0.00 | 0.00 | 79 | 1016.1 |
| 20260506025516 | 14 | 227 | 3.2 | 29.0 | 0.00 | 0.00 | 0.00 | 79 | 1015.9 |
| 20260506025012 | 14 | 242 | 4.8 | 29.0 | 0.00 | 0.00 | 0.00 | 79 | 1015.7 |
| 20260506024512 | 14 | 153 | 6.4 | 22.5 | 0.00 | 0.00 | 0.00 | 79 | 1015.6 |
| 20260506024011 | 14 | 173 | 9.7 | 25.7 | 0.00 | 0.00 | 0.00 | 78 | 1015.7 |
| 20260506023512 | 14 | 215 | 4.8 | 30.6 | 0.00 | 0.00 | 0.00 | 78 | 1015.6 |
| 20260506023011 | 14 | 190 | 8.0 | 30.6 | 0.00 | 0.00 | 0.00 | 78 | 1015.7 |
| 20260506022512 | 14 | 266 | 8.0 | 16.1 | 0.00 | 0.00 | 0.00 | 78 | 1015.7 |
| 20260506022011 | 14 | 172 | 6.4 | 16.1 | 0.00 | 0.00 | 0.00 | 78 | 1015.6 |
| 20260506021511 | 14 | 202 | 4.8 | 22.5 | 0.00 | 0.00 | 0.00 | 78 | 1015.7 |
| 20260506021011 | 13 | 269 | 8.0 | 22.5 | 0.00 | 0.00 | 0.00 | 77 | 1015.6 |
| 20260506020510 | 14 | 167 | 3.2 | 16.1 | 0.00 | 0.00 | 0.00 | 77 | 1015.7 |
| 20260506020110 | 14 | 198 | 4.8 | 20.9 | 0.00 | 0.00 | 0.00 | 77 | 1015.7 |
| 20260506015513 | 14 | 138 | 3.2 | 20.9 | 0.00 | 0.00 | 0.00 | 76 | 1015.6 |
| 20260506015009 | 14 | 226 | 4.8 | 20.9 | 0.00 | 0.00 | 0.00 | 76 | 1015.7 |
| 20260506014511 | 14 | 212 | 8.0 | 19.3 | 0.00 | 0.00 | 0.00 | 76 | 1015.6 |
| 20260506014009 | 14 | 213 | 4.8 | 20.9 | 0.00 | 0.00 | 0.00 | 76 | 1015.5 |
| 20260506013508 | 14 | 195 | 8.0 | 20.9 | 0.00 | 0.00 | 0.00 | 76 | 1015.4 |
| 20260506013009 | 14 | 250 | 6.4 | 29.0 | 0.00 | 0.00 | 0.00 | 76 | 1015.3 |
| 20260506012508 | 14 | 208 | 6.4 | 29.0 | 0.00 | 0.00 | 0.00 | 76 | 1015.3 |
| 20260506012013 | 14 | 196 | 11.3 | 29.0 | 0.00 | 0.00 | 0.00 | 76 | 1015.3 |
| 20260506011508 | 14 | 194 | 8.0 | 29.0 | 0.00 | 0.00 | 0.00 | 76 | 1015.3 |
| 20260506011008 | 14 | 214 | 11.3 | 24.1 | 0.00 | 0.00 | 0.00 | 76 | 1015.3 |
| 20260506010508 | 14 | 195 | 8.0 | 32.2 | 0.00 | 0.00 | 0.00 | 76 | 1015.4 |
| 20260506010108 | 14 | 209 | 6.4 | 32.2 | 0.00 | 0.00 | 0.00 | 77 | 1015.1 |
| 20260506005508 | 14 | 166 | 8.0 | 32.2 | 0.00 | 0.00 | 0.00 | 77 | 1015.2 |
| 20260506005007 | 13 | 111 | 4.8 | 20.9 | 0.00 | 0.00 | 0.00 | 77 | 1015.2 |
| 20260506004507 | 13 | 143 | 8.0 | 20.9 | 0.00 | 0.00 | 0.00 | 78 | 1015.1 |
| 20260506004007 | 13 | 172 | 8.0 | 20.9 | 0.00 | 0.00 | 0.00 | 78 | 1015.0 |
| 20260506003507 | 13 | 173 | 3.2 | 19.3 | 0.00 | 0.00 | 0.00 | 78 | 1014.9 |
| 20260506003008 | 13 | 171 | 4.8 | 16.1 | 0.00 | 0.00 | 0.00 | 79 | 1014.9 |
| 20260506002506 | 13 | 165 | 4.8 | 11.3 | 0.00 | 0.00 | 0.00 | 79 | 1014.9 |
| 20260506002007 | 13 | 172 | 3.2 | 9.7 | 0.00 | 0.00 | 0.00 | 80 | 1014.8 |
| 20260506001507 | 13 | 275 | 1.6 | 6.4 | 0.00 | 0.00 | 0.00 | 80 | 1014.8 |
| 20260506001007 | 13 | 186 | 1.6 | 11.3 | 0.00 | 0.00 | 0.00 | 79 | 1014.7 |
| 20260506000507 | 13 | 266 | 4.8 | 12.9 | 0.00 | 0.00 | 0.00 | 79 | 1014.5 |
| 20260506000006 | 13 | 244 | 1.6 | 12.9 | 0.00 | 0.00 | 0.00 | 79 | 1014.4 |
| 20260505235506 | 13 | 221 | 1.6 | 14.5 | 0.00 | 0.00 | 0.00 | 79 | 1014.3 |
| 20260505235006 | 13 | 217 | 3.2 | 14.5 | 0.00 | 0.00 | 0.00 | 78 | 1014.1 |
| 20260505234506 | 13 | 217 | 1.6 | 12.9 | 0.00 | 0.00 | 0.00 | 78 | 1014.1 |
| 20260505234005 | 14 | 154 | 3.2 | 12.9 | 0.00 | 0.00 | 0.00 | 78 | 1014.0 |
| 20260505233505 | 14 | 213 | 3.2 | 12.9 | 0.00 | 0.00 | 0.00 | 78 | 1014.2 |
| 20260505233008 | 14 | 165 | 1.6 | 9.7 | 0.00 | 0.00 | 0.00 | 78 | 1014.4 |
| 20260505232505 | 14 | 196 | 1.6 | 12.9 | 0.00 | 0.00 | 0.00 | 78 | 1014.5 |
| 20260505232005 | 14 | 191 | 4.8 | 12.9 | 0.00 | 0.00 | 0.00 | 78 | 1014.5 |
| 20260505231509 | 14 | 155 | 4.8 | 11.3 | 0.00 | 0.00 | 0.00 | 78 | 1014.4 |
| 20260505231005 | 14 | 191 | 3.2 | 16.1 | 0.00 | 0.00 | 0.00 | 78 | 1014.4 |
| 20260505230504 | 14 | 247 | 4.8 | 16.1 | 0.00 | 0.00 | 0.00 | 77 | 1014.4 |
| 20260505230104 | 14 | 210 | 6.4 | 14.5 | 0.00 | 0.00 | 0.00 | 77 | 1014.4 |
| 20260505225606 | 14 | 222 | 3.2 | 19.3 | 0.00 | 0.00 | 0.00 | 77 | 1014.2 |
| 20260505225003 | 14 | 136 | 4.8 | 19.3 | 0.00 | 0.00 | 0.00 | 76 | 1014.3 |
| 20260505224503 | 14 | 174 | 9.7 | 19.3 | 0.00 | 0.00 | 0.00 | 77 | 1014.3 |
| 20260505224002 | 14 | 205 | 6.4 | 20.9 | 0.00 | 0.00 | 0.00 | 77 | 1014.3 |
| 20260505223503 | 14 | 182 | 6.4 | 20.9 | 0.00 | 0.00 | 0.00 | 77 | 1014.2 |
| 20260505223003 | 13 | 188 | 6.4 | 19.3 | 0.00 | 0.00 | 0.00 | 78 | 1014.2 |
| 20260505222502 | 13 | 232 | 6.4 | 17.7 | 0.00 | 0.00 | 0.00 | 78 | 1014.1 |
| 20260505222003 | 13 | 248 | 6.4 | 17.7 | 0.00 | 0.00 | 0.00 | 78 | 1014.0 |
| 20260505221503 | 13 | 141 | 4.8 | 29.0 | 0.00 | 0.00 | 0.00 | 78 | 1014.0 |
| 20260505221002 | 13 | 192 | 6.4 | 29.0 | 0.00 | 0.00 | 0.00 | 77 | 1014.0 |
| 20260505220502 | 13 | 180 | 9.7 | 29.0 | 0.00 | 0.00 | 0.00 | 77 | 1014.0 |
| 20260505220007 | 14 | 146 | 9.7 | 24.1 | 0.00 | 0.00 | 0.00 | 77 | 1014.1 |
| 20260505215502 | 14 | 202 | 11.3 | 30.6 | 0.00 | 0.00 | 0.00 | 76 | 1014.2 |
| 20260505215003 | 14 | 167 | 9.7 | 30.6 | 0.00 | 0.00 | 0.00 | 76 | 1014.2 |
| 20260505214619 | 14 | 152 | 11.3 | 24.1 | 0.00 | 0.00 | 0.00 | 76 | 1014.2 |
| 20260505214101 | 15 | 190 | 8.0 | 24.1 | 0.00 | 0.00 | 0.00 | 75 | 1014.1 |
| 20260505213500 | 15 | 228 | 11.3 | 30.6 | 0.00 | 0.00 | 0.00 | 75 | 1014.0 |
| 20260505213000 | 15 | 214 | 8.0 | 30.6 | 0.00 | 0.00 | 0.00 | 75 | 1013.9 |
| 20260505212603 | 15 | 242 | 8.0 | 27.4 | 0.00 | 0.00 | 0.00 | 75 | 1014.0 |
| 20260505212059 | -17 | 0.0 | 0.0 | 0.00 | 0.00 | 0.00 | 1013.9 | ||
| 20260505211658 | -17 | 0.0 | 0.0 | 0.00 | 0.00 | 0.00 | 1013.9 | ||
| 20260505211056 | 15 | 209 | 9.7 | 29.0 | 0.00 | 0.00 | 0.00 | 73 | 1013.8 |
| 20260505210557 | 15 | 209 | 9.7 | 29.0 | 0.00 | 0.00 | 0.00 | 73 | 1013.8 |
| 20260505210057 | 16 | 204 | 9.7 | 27.4 | 0.00 | 0.00 | 0.00 | 72 | 1013.9 |
| 20260505205557 | 16 | 205 | 8.0 | 27.4 | 0.00 | 0.00 | 0.00 | 72 | 1013.8 |
| 20260505205056 | 16 | 206 | 4.8 | 29.0 | 0.00 | 0.00 | 0.00 | 72 | 1013.7 |
| 20260505204555 | 16 | 290 | 11.3 | 22.5 | 0.00 | 0.00 | 0.00 | 72 | 1013.7 |
| 20260505204056 | 16 | 167 | 8.0 | 24.1 | 0.00 | 0.00 | 0.00 | 70 | 1013.6 |
| 20260505203555 | 16 | 140 | 8.0 | 24.1 | 0.00 | 0.00 | 0.00 | 70 | 1013.5 |
| 20260505203055 | 16 | 154 | 9.7 | 20.9 | 0.00 | 0.00 | 0.00 | 70 | 1013.6 |
| 20260505202552 | 16 | 117 | 6.4 | 20.9 | 0.00 | 0.00 | 0.00 | 70 | 1013.8 |